Location: Piotrkow Trybunalski
(51.4000°N, 19.6830°E)
Time: 04:57:36
(UTC+02:00)

A-11 Canister half - Pass Details

Date: 29 January 2023
Orbit: 1526 x 1682 km, 47.3° (Epoch: 25 March)

Event Time Altitude Azimuth Distance (km) Brightness Sun altitude
Rises 09:44:42 0° 263° (W) 4,689 11.3 15.1°
Reaches altitude 10° 09:47:44 10° 262° (W) 3,717 10.8 15.3°
Maximum altitude 09:57:03 70° 181° (S) 1,650 9.8 16.1°
Drops below altitude 10° 10:06:40 10° 100° (E) 3,827 11.7 16.8°
Sets 10:09:49 0° 99° (E) 4,834 12.1 17.0°
